Flag for U.S.A. Weather past 2 weeks in Missoula, Montana, U.S.A.

Now
30 °F

Overcast.


Feels Like: 19 °F
Forecast: 17 / 32 °F
Wind: 16 mph from South

Location: Missoula International Airport

Current Time: Dec 28, 2014 at 1:57:26 AM

Latest Report: Dec 28, 2014 at 12:53 AM


Visibility: 10 mi

Pressure: 29.94 "Hg

Humidity: 85%

Dew point: 26 °F

Location of MissoulaLocation

Historic Weather in Missoula — Graph

°F

Missoula temperature yesterday

Maximum temperature yesterday: 30 °F (at 6:53 PM)
Minimum temperature yesterday: 23 °F (at 12:53 AM)
Average temperature yesterday: 26 °F

Past Weeks' High & Low Weather Summary

 TemperatureHumidityPressure
High43 °F (Dec 21, 10:53 AM)100% (Dec 19, 6:53 PM)30.45 "Hg (Dec 19, 6:53 PM)
Low22 °F (Dec 26, 7:53 AM)55% (Dec 22, 1:53 PM)29.50 "Hg (Dec 24, 4:01 PM)
Average31 °F83%30.08 "Hg
* Reported Dec 13 12:53 AM — Dec 28 12:53 AM, Missoula, Weather by CustomWeather, © 2014

Note: Actual official high and low records may vary slightly from our data, if they occured in-between our weather recording intervals... More about our weather records

Advertising

Missoula weather history for previous 24 hours

 ConditionsComfort  
Time TempWeatherWind HumidityBarometerVisibility
12:53 AM
Dec 28
30 °FOvercast.16 mph85%29.94 "Hg10 mi
11:53 PM
Dec 27
30 °FOvercast.16 mph82%29.96 "Hg10 mi
10:53 PM29 °FOvercast.13 mph89%29.97 "Hg9 mi
9:53 PM29 °FMostly cloudy.18 mph85%29.99 "Hg10 mi
8:53 PM30 °FMostly cloudy.17 mph79%30.01 "Hg10 mi
7:53 PM30 °FMostly cloudy.14 mph79%30.03 "Hg9 mi
6:53 PM30 °FOvercast.9 mph75%30.04 "Hg10 mi
5:53 PM27 °FOvercast.5 mph81%30.07 "Hg10 mi
4:53 PM26 °FPassing clouds.3 mph84%30.12 "Hg10 mi
3:53 PM28 °FMostly cloudy.No wind81%30.14 "Hg10 mi
2:53 PM27 °FOvercast.6 mph85%30.16 "Hg10 mi
1:53 PM27 °FOvercast.6 mph85%30.19 "Hg10 mi
12:53 PM27 °FOvercast.3 mph81%30.22 "Hg10 mi
11:53 AM26 °FOvercast.3 mph88%30.25 "Hg10 mi
10:53 AM26 °FMostly cloudy.5 mph81%30.27 "Hg10 mi
9:53 AM25 °FOvercast.3 mph88%30.29 "Hg10 mi
8:53 AM23 °FOvercast.3 mph92%30.30 "Hg7 mi
7:53 AM23 °FLight snow. Ice fog.3 mph92%30.32 "Hg4 mi
6:53 AM25 °FOvercast.5 mph78%30.32 "Hg10 mi
5:53 AM25 °FOvercast.7 mph75%30.32 "Hg10 mi
4:53 AM24 °FOvercast.6 mph84%30.33 "Hg10 mi
3:53 AM25 °FOvercast.5 mph75%30.34 "Hg10 mi
2:53 AM25 °FOvercast.6 mph78%30.34 "Hg10 mi
1:53 AM24 °FOvercast.5 mph84%30.34 "Hg10 mi
Weather by CustomWeather, © 2014

See weather overviewHow to use our weather pages